Hickory, NC

11:15 PM EDT on May 27, 2018 (GMT -0400)
Hickory Regional

Weather History for KHKY - November, 2014

Change the Weather History Date:

Friday, November 14, 2014

  Actual Average Record
Temperature  
Mean Temperature 34 °F -  
Max Temperature 42 °F 58 °F 78 °F (1999)
Min Temperature 26 °F 34 °F 17 °F (1986)
Degree Days  
Heating Degree Days 31    
Moisture  
Dew Point 21 °F    
Average Humidity 63    
Maximum Humidity 93    
Minimum Humidity 31    
Precipitation  
Precipitation 0.01 in - - ()
Sea Level Pressure  
Sea Level Pressure 30.15 in    
Wind  
Wind Speed 7 mph (NNE)    
Max Wind Speed 13 mph    
Max Gust Speed 18 mph    
Visibility 9 miles    
Events Rain    
Averages and records for this station are not official NWS values.
T = Trace of Precipitation, MM = Missing Value Source: NWS Daily Summary

Daily Weather History Graph

Daily Weather History Graph

Search for Another Location

Airport or City:

Astronomy

Nov. 14, 2014 Rise Set
Actual Time 7:00 AM EST 5:19 PM EST
Civil Twilight 6:33 AM EST 5:46 PM EST
Nautical Twilight 6:02 AM EST 6:17 PM EST
Astronomical Twilight 5:32 AM EST 6:47 PM EST
Moon No Moon Rise 12:56 PM EST (11/14)
Length of Visible Light 11h 12m
Length of Day
10h 18m
Waning Gibbous, 49% of the Moon is Illuminated
Nov 14
Waning Gibbous
Nov 22
New
Nov 29
First Quarter
Dec 6
Full
Dec 14
Last Quarter

Hourly Weather History & Observations

Time (EST) Temp. Windchill Dew Point Humidity Pressure Visibility Wind Dir Wind Speed Gust Speed Precip Events Conditions
12:11 AM 37.0 °F 31.6 °F 35.1 °F 93% 30.05 in 5.0 mi NNE 6.9 mph - 0.00 in Rain Light Rain
12:53 AM 36.0 °F 29.6 °F 34.0 °F 93% 30.03 in 4.0 mi NNE 8.1 mph - 0.01 in Rain Light Rain
1:53 AM 35.1 °F 29.3 °F 33.1 °F 92% 30.03 in 6.0 mi North 6.9 mph - 0.00 in Rain Light Rain
2:04 AM 35.1 °F 29.3 °F 33.1 °F 92% 30.05 in 7.0 mi North 6.9 mph - 0.00 in   Overcast
2:13 AM 35.1 °F 30.1 °F 33.1 °F 92% 30.05 in 7.0 mi NNE 5.8 mph - 0.00 in   Overcast
2:53 AM 35.1 °F 28.6 °F 32.0 °F 89% 30.03 in 7.0 mi NNE 8.1 mph - 0.00 in Rain Light Rain
3:15 AM 35.1 °F 30.1 °F 32.0 °F 89% 30.06 in 8.0 mi NNE 5.8 mph - 0.00 in   Overcast
3:53 AM 35.1 °F 31.0 °F 30.9 °F 85% 30.05 in 10.0 mi NE 4.6 mph - 0.00 in   Overcast
4:53 AM 35.1 °F 31.0 °F 30.9 °F 85% 30.07 in 10.0 mi NE 4.6 mph - N/A   Overcast
5:24 AM 34.0 °F 28.0 °F 26.1 °F 73% 30.10 in 10.0 mi NNE 6.9 mph - N/A   Overcast
5:53 AM 34.0 °F 28.0 °F 25.0 °F 70% 30.09 in 10.0 mi North 6.9 mph - N/A   Overcast
6:02 AM 34.0 °F 28.0 °F 26.1 °F 73% 30.11 in 10.0 mi NNE 6.9 mph - N/A   Overcast
6:53 AM 33.1 °F 27.7 °F 23.0 °F 66% 30.11 in 10.0 mi NNE 5.8 mph - N/A   Overcast
7:53 AM 32.0 °F 22.5 °F 19.9 °F 61% 30.15 in 10.0 mi NNE 12.7 mph 18.4 mph N/A   Mostly Cloudy
8:53 AM 33.1 °F 24.9 °F 18.0 °F 54% 30.17 in 10.0 mi North 10.4 mph - N/A   Clear
9:53 AM 35.1 °F 26.9 °F 18.0 °F 50% 30.19 in 10.0 mi NNE 11.5 mph - N/A   Clear
10:53 AM 36.0 °F 29.0 °F 17.1 °F 46% 30.19 in 10.0 mi North 9.2 mph - N/A   Clear
11:53 AM 37.9 °F 34.4 °F 16.0 °F 41% 30.18 in 10.0 mi Variable 4.6 mph - N/A   Clear
12:53 PM 39.9 °F 34.5 °F 15.1 °F 36% 30.15 in 10.0 mi NE 8.1 mph - N/A   Clear
1:53 PM 42.1 °F 37.7 °F 14.0 °F 32% 30.14 in 10.0 mi ENE 6.9 mph - N/A   Clear
2:53 PM 42.1 °F 35.7 °F 12.9 °F 31% 30.14 in 10.0 mi North 11.5 mph - N/A   Clear
3:53 PM 39.9 °F 34.5 °F 12.9 °F 33% 30.16 in 10.0 mi NNE 8.1 mph - N/A   Clear
4:53 PM 36.0 °F 29.0 °F 12.9 °F 39% 30.19 in 10.0 mi NNE 9.2 mph - N/A   Clear
5:53 PM 32.0 °F 23.6 °F 12.9 °F 45% 30.23 in 10.0 mi North 10.4 mph - N/A   Clear
6:53 PM 30.0 °F 25.2 °F 12.9 °F 49% 30.25 in 10.0 mi North 4.6 mph - N/A   Clear
7:53 PM 28.0 °F 22.8 °F 12.9 °F 53% 30.28 in 10.0 mi North 4.6 mph - N/A   Clear
8:53 PM 28.0 °F 22.8 °F 14.0 °F 56% 30.30 in 10.0 mi NNE 4.6 mph - N/A   Clear
9:53 PM 26.1 °F 19.4 °F 12.9 °F 58% 30.30 in 10.0 mi NE 5.8 mph - N/A   Clear
10:53 PM 26.1 °F 18.4 °F 12.0 °F 55% 30.31 in 10.0 mi NE 6.9 mph - N/A   Clear
11:53 PM 26.1 °F 18.4 °F 12.0 °F 55% 30.32 in 10.0 mi NNE 6.9 mph - N/A   Clear